Location: LDNL
(36.4545°S, 141.6685°E)
Time: 15:26:34
(UTC+10:00)

Courier 1B Rocket - Pass Details

Date: 16 August 2022
Orbit: 920 x 1202 km, 28.2° (Epoch: 25 September)

Event Time Altitude Azimuth Distance (km) Brightness Sun altitude
Exits shadow 06:35:37 - 280° (W) 3,362 7.2 -8.6°
Reaches altitude 10° 06:36:21 10° 282° (WNW) 3,135 7.1 -8.5°
Maximum altitude 06:43:29 39° 347° (NNW) 1,683 6.3 -7.1°
Drops below altitude 10° 06:50:20 10° 53° (NE) 3,007 8.8 -5.7°
Sets 06:53:14 0° 61° (ENE) 3,924 10.0 -5.1°
